| time (UTC) | temp F | wind direction | speed MPH | gust MPH | rain 1hr in | rain 24hr in | rain mn in | humidity % | barometer mb |
| 20260905060036 | 80 | 232 | 0.0 | 1.0 | 0.00 | 0.00 | 0.00 | 68 | 1018.3 |
| 20260905054546 | 82 | 229 | 0.0 | 1.0 | 0.00 | 0.00 | 0.00 | 63 | 1018.1 |
| 20260905053033 | 84 | 228 | 0.0 | 2.0 | 0.00 | 0.00 | 0.00 | 50 | 1017.7 |
| 20260905051507 | 83 | 120 | 0.0 | 1.0 | 0.00 | 0.00 | 0.00 | 54 | 1017.6 |
| 20260905050113 | 82 | 64 | 0.0 | 1.0 | 0.00 | 0.00 | 0.00 | 63 | 1017.5 |
| 20260905044615 | 83 | 74 | 0.0 | 1.0 | 0.00 | 0.00 | 0.00 | 62 | 1017.6 |
| 20260905043115 | 83 | 93 | 0.0 | 0.0 | 0.00 | 0.00 | 0.00 | 62 | 1017.6 |
| 20260905041611 | 84 | 94 | 0.0 | 1.0 | 0.00 | 0.00 | 0.00 | 60 | 1017.3 |
| 20260905040105 | 83 | 93 | 0.0 | 1.0 | 0.00 | 0.00 | 0.00 | 62 | 1017.4 |
| 20260905034611 | 84 | 96 | 0.0 | 1.0 | 0.00 | 0.00 | 0.00 | 59 | 1017.2 |
| 20260905033107 | 84 | 107 | 0.0 | 1.0 | 0.00 | 0.00 | 0.00 | 60 | 1017.3 |
| 20260905031609 | 84 | 256 | 0.0 | 0.0 | 0.00 | 0.00 | 0.00 | 62 | 1017.6 |
| 20260905030106 | 85 | 256 | 0.0 | 1.0 | 0.00 | 0.00 | 0.00 | 59 | 1017.6 |
| 20260905024555 | 84 | 256 | 0.0 | 1.0 | 0.00 | 0.00 | 0.00 | 59 | 1017.9 |
| 20260905023055 | 84 | 256 | 0.0 | 1.0 | 0.00 | 0.00 | 0.00 | 60 | 1017.8 |
| 20260905021559 | 84 | 132 | 0.0 | 1.0 | 0.00 | 0.00 | 0.00 | 61 | 1017.8 |
| 20260905020055 | 85 | 252 | 0.0 | 1.0 | 0.00 | 0.00 | 0.00 | 62 | 1018.0 |
| 20260905014555 | 85 | 53 | 0.0 | 1.0 | 0.00 | 0.00 | 0.00 | 58 | 1017.9 |
| 20260905013053 | 85 | 52 | 0.0 | 0.0 | 0.00 | 0.00 | 0.00 | 59 | 1018.1 |
| 20260905011611 | 85 | 53 | 0.0 | 0.0 | 0.00 | 0.00 | 0.00 | 58 | 1018.3 |
| 20260905010042 | 85 | 53 | 0.0 | 1.0 | 0.00 | 0.00 | 0.00 | 58 | 1018.2 |
| 20260905004548 | 85 | 249 | 0.0 | 1.0 | 0.00 | 0.00 | 0.00 | 58 | 1018.5 |
| 20260905003011 | 86 | 249 | 0.0 | 2.0 | 0.00 | 0.00 | 0.00 | 57 | 1018.5 |
| 20260905001612 | 86 | 231 | 1.0 | 6.0 | 0.00 | 0.00 | 0.00 | 57 | 1018.7 |
| 20260905000103 | 87 | 215 | 0.0 | 2.0 | 0.00 | 0.00 | 0.00 | 56 | 1018.5 |
| 20260904234557 | 87 | 255 | 0.0 | 1.0 | 0.00 | 0.00 | 0.00 | 56 | 1018.6 |
| 20260904233103 | 87 | 255 | 0.0 | 1.0 | 0.00 | 0.00 | 0.00 | 56 | 1018.4 |
| 20260904231553 | 88 | 255 | 0.0 | 2.0 | 0.00 | 0.00 | 0.00 | 55 | 1018.7 |
| 20260904230046 | 88 | 217 | 0.0 | 2.0 | 0.00 | 0.00 | 0.00 | 55 | 1018.5 |
| 20260904224545 | 88 | 188 | 0.0 | 2.0 | 0.00 | 0.00 | 0.00 | 55 | 1018.4 |
| 20260904223046 | 88 | 199 | 0.0 | 2.0 | 0.00 | 0.00 | 0.00 | 55 | 1018.5 |
| 20260904221545 | 88 | 148 | 0.0 | 2.0 | 0.00 | 0.00 | 0.00 | 55 | 1018.2 |
| 20260904220017 | 88 | 181 | 0.0 | 3.0 | 0.00 | 0.00 | 0.00 | 55 | 1018.3 |
| 20260904214503 | 88 | 211 | 0.0 | 2.0 | 0.00 | 0.00 | 0.00 | 55 | 1018.3 |
| 20260904213109 | 88 | 208 | 1.0 | 3.0 | 0.00 | 0.00 | 0.00 | 55 | 1018.3 |
| 20260904211602 | 88 | 246 | 1.0 | 4.0 | 0.00 | 0.00 | 0.00 | 55 | 1018.5 |
| 20260904210106 | 89 | 231 | 2.0 | 6.0 | 0.00 | 0.00 | 0.00 | 55 | 1018.6 |
| 20260904204604 | 89 | 209 | 0.0 | 4.0 | 0.00 | 0.00 | 0.00 | 55 | 1018.5 |
| 20260904203103 | 89 | 241 | 0.0 | 4.0 | 0.00 | 0.00 | 0.00 | 55 | 1018.5 |
| 20260904201627 | 90 | 210 | 0.0 | 3.0 | 0.00 | 0.00 | 0.00 | 55 | 1018.3 |
| 20260904200107 | 90 | 212 | 1.0 | 5.0 | 0.00 | 0.00 | 0.00 | 54 | 1018.2 |
| 20260904194602 | 91 | 216 | 0.0 | 3.0 | 0.00 | 0.00 | 0.00 | 53 | 1018.1 |
| 20260904193052 | 91 | 229 | 2.0 | 6.0 | 0.00 | 0.00 | 0.00 | 53 | 1017.8 |
| 20260904191553 | 91 | 245 | 1.0 | 5.0 | 0.00 | 0.00 | 0.00 | 53 | 1017.6 |
| 20260904190047 | 91 | 222 | 1.0 | 7.0 | 0.00 | 0.00 | 0.00 | 53 | 1017.5 |
| 20260904184551 | 91 | 238 | 0.0 | 4.0 | 0.00 | 0.00 | 0.00 | 53 | 1017.5 |
| 20260904183058 | 92 | 226 | 1.0 | 8.0 | 0.00 | 0.00 | 0.00 | 52 | 1017.4 |
| 20260904181547 | 94 | 248 | 2.0 | 7.0 | 0.00 | 0.00 | 0.00 | 48 | 1017.4 |
| 20260904180016 | 96 | 293 | 0.0 | 7.0 | 0.00 | 0.00 | 0.00 | 43 | 1017.2 |
| 20260904174543 | 99 | 219 | 1.0 | 8.0 | 0.00 | 0.00 | 0.00 | 41 | 1017.1 |
| 20260904173038 | 103 | 249 | 0.0 | 3.0 | 0.00 | 0.00 | 0.00 | 28 | 1017.1 |
| 20260904171513 | 104 | 292 | 0.0 | 2.0 | 0.00 | 0.00 | 0.00 | 27 | 1017.0 |
| 20260904170007 | 105 | 332 | 0.0 | 2.0 | 0.00 | 0.00 | 0.00 | 25 | 1017.0 |
| 20260904164502 | 105 | 225 | 0.0 | 1.0 | 0.00 | 0.00 | 0.00 | 25 | 1017.1 |
| 20260904163110 | 105 | 225 | 0.0 | 1.0 | 0.00 | 0.00 | 0.00 | 25 | 1017.2 |
| 20260904161616 | 105 | 329 | 0.0 | 2.0 | 0.00 | 0.00 | 0.00 | 26 | 1017.3 |
| 20260904160057 | 104 | 253 | 0.0 | 4.0 | 0.00 | 0.00 | 0.00 | 26 | 1017.4 |
| 20260904154555 | 105 | 259 | 0.0 | 2.0 | 0.00 | 0.00 | 0.00 | 26 | 1017.4 |
| 20260904153003 | 103 | 351 | 0.0 | 3.0 | 0.00 | 0.00 | 0.00 | 27 | 1017.5 |
| 20260904151501 | 104 | 229 | 0.0 | 3.0 | 0.00 | 0.00 | 0.00 | 27 | 1017.6 |
| 20260904150113 | 103 | 231 | 0.0 | 2.0 | 0.00 | 0.00 | 0.00 | 28 | 1017.9 |
| 20260904144622 | 102 | 346 | 0.0 | 3.0 | 0.00 | 0.00 | 0.00 | 29 | 1018.1 |
| 20260904143106 | 102 | 30 | 0.0 | 2.0 | 0.00 | 0.00 | 0.00 | 30 | 1018.4 |
| 20260904141605 | 101 | 288 | 0.0 | 5.0 | 0.00 | 0.00 | 0.00 | 31 | 1018.6 |
| 20260904140055 | 99 | 20 | 0.0 | 2.0 | 0.00 | 0.00 | 0.00 | 33 | 1018.8 |
| 20260904134553 | 98 | 96 | 0.0 | 5.0 | 0.00 | 0.00 | 0.00 | 36 | 1019.0 |
| 20260904133047 | 97 | 82 | 0.0 | 2.0 | 0.00 | 0.00 | 0.00 | 38 | 1019.1 |
| 20260904131547 | 97 | 50 | 0.0 | 3.0 | 0.00 | 0.00 | 0.00 | 39 | 1019.5 |
| 20260904130041 | 97 | 88 | 0.0 | 1.0 | 0.00 | 0.00 | 0.00 | 39 | 1019.8 |
| 20260904124549 | 96 | 323 | 2.0 | 7.0 | 0.00 | 0.00 | 0.00 | 40 | 1019.9 |
| 20260904123007 | 95 | 6 | 0.0 | 3.0 | 0.00 | 0.00 | 0.00 | 42 | 1020.0 |
| 20260904121505 | 94 | 82 | 0.0 | 2.0 | 0.00 | 0.00 | 0.00 | 43 | 1020.1 |
| 20260904120136 | 94 | 67 | 1.0 | 4.0 | 0.00 | 0.00 | 0.00 | 43 | 1020.3 |
| 20260904114502 | 93 | 133 | 0.0 | 0.0 | 0.00 | 0.00 | 0.00 | 46 | 1020.5 |
| 20260904113117 | 92 | 80 | 0.0 | 2.0 | 0.00 | 0.00 | 0.00 | 48 | 1020.6 |
| 20260904111615 | 94 | 91 | 0.0 | 2.0 | 0.00 | 0.00 | 0.00 | 46 | 1020.9 |
| 20260904110109 | 91 | 345 | 0.0 | 2.0 | 0.00 | 0.00 | 0.00 | 51 | 1021.1 |
| 20260904104613 | 90 | 53 | 0.0 | 0.0 | 0.00 | 0.00 | 0.00 | 54 | 1021.3 |
| 20260904103107 | 88 | 308 | 0.0 | 1.0 | 0.00 | 0.00 | 0.00 | 56 | 1021.7 |
| 20260904101601 | 86 | 297 | 0.0 | 4.0 | 0.00 | 0.00 | 0.00 | 59 | 1021.7 |
| 20260904100104 | 86 | 326 | 0.0 | 2.0 | 0.00 | 0.00 | 0.00 | 61 | 1021.7 |
| 20260904094614 | 86 | 92 | 0.0 | 2.0 | 0.00 | 0.00 | 0.00 | 61 | 1021.8 |
| 20260904093110 | 86 | 257 | 0.0 | 0.0 | 0.00 | 0.00 | 0.00 | 62 | 1021.8 |
| 20260904091616 | 85 | 257 | 0.0 | 0.0 | 0.00 | 0.00 | 0.00 | 64 | 1021.9 |
| 20260904090108 | 83 | 257 | 0.0 | 0.0 | 0.00 | 0.00 | 0.00 | 66 | 1021.9 |
| 20260904084617 | 83 | 257 | 0.0 | 0.0 | 0.00 | 0.00 | 0.00 | 68 | 1021.9 |
| 20260904083113 | 82 | 124 | 0.0 | 0.0 | 0.00 | 0.00 | 0.00 | 68 | 1021.8 |
| 20260904081643 | 81 | 124 | 0.0 | 1.0 | 0.00 | 0.00 | 0.00 | 71 | 1021.7 |
| 20260904080111 | 80 | 210 | 0.0 | 1.0 | 0.00 | 0.00 | 0.00 | 74 | 1021.6 |
| 20260904074622 | 78 | 214 | 0.0 | 3.0 | 0.00 | 0.00 | 0.00 | 78 | 1021.6 |
| 20260904073109 | 78 | 174 | 0.0 | 3.0 | 0.00 | 0.00 | 0.00 | 79 | 1021.5 |
| 20260904071611 | 77 | 231 | 0.0 | 1.0 | 0.00 | 0.00 | 0.00 | 81 | 1021.6 |
| 20260904070131 | 76 | 200 | 0.0 | 2.0 | 0.00 | 0.00 | 0.00 | 82 | 1021.6 |
| 20260904064611 | 75 | 229 | 0.0 | 1.0 | 0.00 | 0.00 | 0.00 | 83 | 1021.4 |
| 20260904063108 | 75 | 245 | 0.0 | 1.0 | 0.00 | 0.00 | 0.00 | 84 | 1021.4 |
| 20260904061615 | 75 | 245 | 0.0 | 2.0 | 0.00 | 0.00 | 0.00 | 83 | 1021.2 |